Location: Unspecified
(39.4830°S, 0.0000°E)
Time: 06:25:52
(UTC+00:00)

N. Korean satellite - Visible Passes

Search period start: 21 May 2019 00:00
Search period end: 31 May 2019 00:00
Orbit: 457 x 508 km, 97.2° (Epoch: 19 May)

Date Brightness Start Highest point End Pass type
(mag) Time Alt. Az. Time Alt. Az. Time Alt. Az.
21 May 7.3 05:02:44 10° NNE 05:06:06 50° ESE 05:07:48 26° SSE visible
21 May 6.5 18:03:07 10° SSE 18:06:50 80° E 18:10:33 10° N visible
22 May 8.8 04:38:24 10° NE 04:41:13 24° ESE 04:42:26 20° SE visible
22 May 8.1 06:12:14 10° NW 06:14:37 17° W 06:16:45 11° SW visible
22 May 7.2 17:38:21 10° SSE 17:41:49 36° E 17:45:16 10° NNE visible
22 May 9.7 19:12:53 10° SW 19:14:54 14° WSW 19:16:54 10° W visible
23 May 9.7 04:15:01 10° E 04:16:27 12° ESE 04:17:04 12° SE visible
23 May 7.0 05:46:16 10° NNW 05:49:30 36° W 05:51:23 21° SW visible
23 May 8.2 17:14:05 10° SE 17:16:42 18° E 17:19:19 10° NE visible
23 May 8.7 18:46:55 10° SSW 18:50:07 27° WSW 18:53:17 10° NW visible
24 May 6.3 05:20:59 10° N 05:24:27 86° W 05:26:01 31° SSW visible
24 May 7.3 18:21:33 10° S 18:25:14 56° WSW 18:28:53 10° NNW visible
25 May 7.7 04:56:14 10° NE 04:59:31 41° ESE 05:00:40 30° SSE visible
25 May 8.6 06:32:55 10° W 06:33:10 10° W 06:33:25 10° W visible
25 May 6.6 17:56:32 10° SSE 18:00:16 66° E 18:03:59 10° N visible
26 May 9.0 04:32:03 10° ENE 04:34:40 20° ESE 04:35:19 19° SE visible
26 May 7.8 06:05:15 10° NW 06:07:58 21° W 06:09:38 16° WSW visible
26 May 7.5 17:31:52 10° SSE 17:35:13 30° E 17:38:33 10° NNE visible
26 May 9.5 19:05:56 10° SSW 19:08:22 17° WSW 19:10:49 10° WNW visible
27 May 9.9 04:09:24 10° ESE 04:09:55 10° ESE 04:09:58 10° ESE visible
27 May 6.8 05:39:31 10° N 05:42:51 45° W 05:44:17 28° SW visible
27 May 8.4 18:40:11 10° S 18:43:34 32° WSW 18:46:55 10° NW visible
28 May 6.5 05:14:22 10° NNE 05:17:50 77° ESE 05:18:56 42° S visible
28 May 6.9 18:14:54 10° S 18:18:39 69° WSW 18:22:23 10° NNW visible
29 May 8.1 04:49:43 10° NE 04:52:55 34° ESE 04:53:36 31° SE visible
29 May 8.5 06:24:55 10° WNW 06:26:28 12° W 06:27:54 10° WSW visible
29 May 6.8 17:49:58 10° SSE 17:53:40 53° E 17:57:20 10° N visible
29 May 9.9 19:25:57 10° SW 19:26:34 10° WSW 19:27:12 10° WSW visible
30 May 9.3 04:25:43 10° ENE 04:28:05 17° ESE 04:28:15 17° ESE visible
30 May 7.6 05:58:20 10° NNW 06:01:17 25° W 06:02:33 21° WSW visible
30 May 7.8 17:25:24 10° SE 17:28:35 25° E 17:31:44 10° NNE visible
30 May 9.2 18:59:02 10° SSW 19:01:49 20° WSW 19:04:36 10° WNW visible
